Temperature
24 23 23 22 21 21 23 24 25 24 24 24 23 23 22 21 20 19 19 19 20 19 19 19 19 19 18 18 18 18 18 18 18 18 18 18 18 18 18 18 18 18 18 18 18 18 18 18 18
24 24 23 22 21 21 23 24 24 24 24 23 23 22 21 21 20 19 19 19 20 19 19 19 19 19 18 18 18 18 18 18 18 18 18 18 18 18 18 18 18 18 18 18 18 18 18 18 18
24 23 23 21 22 22 24 25 25 25 24 24 23 22 22 21 20 19 20 20 20 19 19 19 19 19 18 18 18 18 18 18 18 18 18 18 18 18 18 18 18 18 18 18 18 18 18 18 18
24 23 23 21 23 25 25 25 25 25 24 24 23 22 21 21 21 20 20 20 20 19 19 19 19 19 18 18 18 18 18 18 18 18 18 18 18 18 18 18 18 18 18 18 18 18 18 18 18
24 24 22 22 24 26 26 26 26 25 24 23 22 21 21 21 21 20 20 20 20 20 19 19 19 19 18 18 18 18 18 18 18 18 18 18 18 18 18 18 18 18 18 18 18 18 18 18 18
24 22 22 22 25 26 26 26 25 24 23 23 22 21 21 21 21 20 20 20 20 20 19 19 19 19 19 18 18 18 18 18 18 18 18 18 18 18 18 18 18 18 18 18 18 18 18 18 17
24 22 23 24 25 25 26 26 25 24 23 23 22 21 21 20 21 20 20 20 20 20 19 19 19 19 19 18 18 18 18 18 18 18 18 18 18 18 18 18 18 18 18 18 18 18 18 17 17
26 23 24 24 25 25 27 26 25 25 24 23 23 21 21 20 21 20 20 20 20 19 19 19 19 19 19 18 18 18 18 18 18 18 18 18 18 18 18 18 18 18 18 18 18 17 17 17 17
27 23 23 24 25 25 27 26 26 25 24 24 23 22 21 21 21 20 20 20 19 19 19 19 19 19 19 18 18 18 18 18 18 18 18 18 18 18 18 18 18 18 18 18 18 17 17 17 17
27 23 25 26 25 26 27 26 26 25 24 23 23 22 21 21 21 20 20 20 19 19 19 19 19 19 19 18 18 18 18 18 18 18 18 18 18 18 18 18 18 18 18 18 17 17 17 17 17
27 25 27 28 28 28 27 26 26 24 23 23 22 22 21 21 21 20 20 20 20 19 19 19 19 19 18 18 18 18 18 18 18 18 18 18 18 18 18 18 18 18 18 18 18 18 18 17 17
28 28 29 28 28 28 27 26 26 25 24 24 23 22 22 21 21 21 20 20 20 19 19 19 19 18 18 18 18 18 18 18 18 18 17 18 18 18 18 18 18 18 18 18 18 17 18 17 17
28 28 29 29 28 28 28 26 26 25 24 24 23 22 22 22 21 21 21 20 20 19 19 19 19 18 18 18 18 18 18 18 18 18 18 18 18 18 18 18 18 18 18 18 18 18 18 18 18
29 29 28 28 28 28 27 26 26 25 24 24 23 23 22 22 21 21 21 20 20 19 19 19 19 18 18 18 18 18 18 18 18 18 18 18 18 18 18 18 18 18 18 18 18 18 18 18 18
29 27 27 27 28 27 26 25 25 25 24 24 23 23 22 22 22 21 21 21 20 20 19 19 19 18 18 18 18 18 18 18 18 18 18 18 18 18 18 18 18 18 18 18 18 18 18 18 18
27 26 25 26 27 27 25 24 25 25 24 24 23 23 23 22 22 22 21 21 20 20 19 19 19 19 18 18 18 18 18 18 18 18 18 18 18 18 18 18 18 18 18 18 18 18 18 18 18
25 25 25 26 27 27 25 24 25 25 25 24 24 23 23 22 22 22 21 21 20 20 19 19 19 19 18 18 18 18 18 18 18 18 18 18 18 18 18 18 18 18 18 18 18 18 18 18 18
25 25 26 26 27 27 25 24 25 25 25 24 24 23 23 22 22 22 21 21 20 20 19 19 19 19 18 18 18 18 18 18 18 18 18 18 18 18 18 18 18 18 18 18 18 18 18 18 17
27 26 26 27 27 26 25 24 25 25 25 24 24 23 23 23 22 22 21 21 20 20 19 19 19 19 18 18 18 18 18 18 18 18 18 18 18 18 18 18 18 18 18 18 18 17 17 17 17
27 26 26 26 27 26 24 24 25 25 25 25 24 23 23 23 22 22 22 21 21 20 20 19 19 19 19 19 19 18 18 18 18 18 18 18 18 18 18 18 18 18 18 18 18 18 18 17 17
27 26 26 26 26 26 25 24 24 24 25 25 24 24 24 23 23 22 22 21 21 21 20 20 19 19 19 19 18 18 18 18 18 18 18 18 18 18 18 18 18 18 18 18 18 18 18 18 18
27 28 28 27 25 23 24 22 23 23 23 24 24 24 24 23 23 23 22 22 21 21 21 20 20 19 19 19 18 18 18 18 18 18 18 18 18 18 18 18 18 18 18 18 18 18 18 18 18
27 29 28 27 24 23 23 22 22 22 23 23 24 24 24 24 23 23 23 22 22 22 21 20 20 20 19 19 19 18 18 18 18 18 18 18 18 18 18 18 18 18 18 18 18 18 17 17 17
29 27 26 23 22 22 23 23 22 22 23 24 24 25 24 24 23 23 23 23 22 22 21 21 20 20 19 19 19 19 19 19 18 18 18 18 18 18 18 18 18 18 18 18 18 18 18 17 17
27 24 23 23 21 22 23 23 22 23 24 25 24 25 24 24 24 23 23 23 22 22 21 21 20 20 20 19 19 19 19 19 19 19 19 19 19 19 19 19 19 18 18 18 18 18 18 17 17
26 24 23 23 22 22 23 23 23 25 25 26 26 25 25 24 24 24 23 23 23 22 22 21 21 20 20 20 20 19 19 19 19 19 19 19 19 19 19 19 19 18 18 18 18 18 18 17 17
26 24 23 22 22 22 22 23 23 25 25 25 25 25 24 24 24 24 23 23 23 23 22 22 21 21 20 20 20 20 20 19 19 19 19 19 19 19 19 19 19 18 18 18 18 18 18 17 17
27 25 22 21 22 22 22 22 22 23 23 24 24 24 24 24 24 24 23 23 23 23 23 22 22 21 21 21 20 20 20 20 20 19 19 19 19 19 19 19 19 18 18 18 18 18 18 17 17
26 25 22 20 21 21 21 22 23 22 23 23 23 24 24 24 24 23 23 23 23 23 22 22 22 21 21 21 21 20 20 20 20 19 19 19 19 19 19 19 18 18 18 18 18 18 18 17 17
26 25 22 22 21 20 20 21 24 23 23 23 24 24 24 24 24 24 23 23 23 22 22 22 22 22 21 21 21 21 20 20 20 19 19 19 19 19 19 19 19 18 18 18 18 18 18 18 17
Wind_Speed
11 8 4 2 4 5 5 5 8 10 7 9 11 10 10 7 5 6 4 9 10 7 7 9 10 10 11 11 12 13 13 13 14 14 15 14 15 15 16 16 16 17 18 18 18 18 20 20 19
6 5 2 3 5 5 4 6 11 12 12 13 12 12 10 8 8 9 6 9 10 8 8 9 10 11 11 12 12 13 13 13 14 14 14 15 14 15 15 15 17 17 17 18 18 18 19 19 18
4 2 2 3 3 5 5 8 12 13 13 10 7 7 6 6 8 6 8 12 10 7 8 10 12 11 11 12 12 13 13 14 14 14 14 14 14 14 15 16 17 17 17 18 18 19 19 18 17
3 2 3 4 4 5 8 9 13 14 11 10 10 7 5 6 6 9 13 13 11 7 8 11 12 12 12 12 12 12 13 13 14 14 14 14 14 14 15 16 17 18 18 17 18 19 18 16 16
2 3 4 3 4 6 8 11 12 12 6 9 11 9 6 5 12 15 14 12 11 7 7 10 12 12 12 13 13 12 13 13 13 14 14 14 14 15 16 16 17 18 17 17 18 18 16 15 14
3 3 3 3 5 7 7 11 14 15 14 13 12 9 5 8 13 13 13 11 10 9 7 9 10 10 12 12 12 12 12 12 13 13 13 13 14 16 17 17 17 17 17 16 15 15 14 13 12
4 3 3 5 6 7 7 9 12 13 13 9 10 7 5 7 10 12 12 11 9 8 7 6 7 8 10 11 11 11 12 12 12 13 13 13 13 15 15 15 16 16 16 14 13 12 12 11 10
5 4 3 3 7 6 7 7 10 13 10 12 9 8 7 9 11 12 11 10 9 7 6 5 6 6 7 9 10 11 12 12 11 12 12 12 12 13 14 13 14 14 14 13 12 10 10 9 8
5 4 4 6 7 6 9 11 7 9 12 7 5 8 12 15 13 12 10 7 7 7 5 5 5 5 6 8 9 10 11 10 10 10 11 10 9 9 10 12 12 13 12 11 10 9 8 7 6
5 5 7 7 8 8 11 13 9 8 11 10 11 12 14 14 12 12 10 9 8 7 6 5 5 5 6 6 7 6 7 7 7 7 8 8 8 8 9 10 11 11 10 9 8 7 5 5 3
5 7 6 7 9 10 10 10 7 11 10 14 17 16 14 13 11 11 10 9 8 8 7 5 6 6 5 4 6 5 5 5 6 6 7 8 7 7 6 6 7 7 7 5 5 4 2 2 2
5 5 6 7 8 8 9 9 8 9 11 15 16 16 13 12 11 10 9 8 7 7 6 6 6 6 6 6 6 5 4 4 4 6 8 8 5 5 5 4 5 5 4 4 3 2 2 2 3
6 4 6 7 7 8 10 11 10 10 14 15 16 15 13 12 10 8 9 9 8 7 6 6 6 6 6 5 5 6 5 5 6 6 7 8 6 4 5 4 4 4 4 4 3 2 2 2 2
4 5 6 7 7 8 12 10 8 12 16 16 15 13 13 13 11 8 8 8 8 7 7 7 7 6 6 5 4 4 5 6 6 6 7 9 7 6 4 4 4 3 4 4 4 3 3 2 2
4 6 5 3 4 6 11 7 10 15 17 16 14 13 13 12 11 11 11 10 9 8 8 8 8 6 6 6 5 5 5 7 5 6 8 8 8 7 5 4 3 3 4 4 4 3 2 2 2
5 5 2 2 3 5 8 7 10 15 16 15 14 13 12 11 11 11 11 10 9 8 8 8 8 7 6 6 5 4 5 6 5 6 7 8 7 7 6 4 3 4 4 3 3 3 3 2 1
4 3 3 2 3 4 4 6 10 13 15 14 13 13 12 11 9 10 11 11 10 10 9 7 7 7 6 5 5 5 4 5 5 6 6 7 7 7 6 3 3 4 3 3 3 3 3 3 2
3 3 3 4 3 4 4 5 11 12 13 14 13 12 13 13 11 12 11 11 10 9 8 7 7 7 6 5 4 4 4 3 4 5 6 7 7 7 6 4 3 4 3 2 2 3 2 2 3
5 4 3 4 3 4 4 6 10 12 12 12 11 12 13 13 11 12 12 12 10 8 8 7 7 6 5 4 4 4 3 3 2 3 6 7 7 7 6 4 3 3 3 3 4 3 3 2 2
4 3 2 0 2 2 3 4 8 11 13 14 15 14 14 12 10 11 11 11 10 9 8 8 8 7 6 5 4 4 4 3 3 2 3 6 6 6 6 4 3 3 3 3 4 3 2 1 2
4 7 6 4 2 2 2 1 5 6 6 7 11 13 14 16 16 14 12 11 10 10 10 9 8 7 6 6 4 4 3 2 1 1 2 3 6 7 6 5 4 4 4 4 4 4 4 3 1
5 8 9 7 4 2 2 2 5 6 6 8 9 11 13 14 14 14 14 13 13 12 10 9 8 7 6 6 6 6 5 4 4 3 3 3 5 6 6 6 5 4 4 4 4 3 3 4 2
6 7 6 7 5 1 1 3 5 2 6 9 10 12 14 15 16 16 15 15 13 12 10 9 8 7 6 6 7 7 5 4 3 3 3 3 3 4 5 5 5 4 4 4 4 3 3 3 3
4 3 4 4 4 1 5 4 5 6 10 10 10 13 13 15 16 15 14 12 11 10 9 9 9 7 7 7 7 7 7 6 5 4 4 3 2 2 3 4 5 5 4 4 4 4 4 4 3
2 5 3 2 3 4 3 3 7 8 9 10 11 12 13 15 15 14 14 14 13 12 11 10 10 8 8 8 7 7 7 7 7 6 5 5 3 3 4 4 4 3 4 5 4 4 4 4 4
5 9 8 6 5 4 3 4 6 6 4 5 7 8 10 13 14 15 15 15 15 15 13 12 11 9 9 8 7 7 7 6 5 6 5 5 5 4 5 4 4 4 5 5 4 4 4 4 4
5 5 8 8 4 2 3 4 5 2 3 5 6 7 9 12 13 14 14 14 13 14 13 13 12 10 9 9 8 6 6 6 6 5 5 4 4 4 5 5 5 4 4 4 4 3 4 3 4
6 6 5 6 5 3 3 3 4 4 4 4 6 8 10 10 12 12 13 14 13 13 12 12 11 11 9 9 9 8 7 7 6 5 5 5 5 4 4 4 4 4 4 4 3 3 3 3 3
1 3 4 4 6 7 4 6 7 9 8 7 8 8 10 12 12 12 12 13 12 11 11 11 10 9 9 9 8 8 7 6 5 5 6 5 5 5 5 5 5 5 4 4 4 4 4 4 3
5 6 7 5 3 5 5 6 4 7 7 7 7 6 7 10 11 11 11 11 11 11 11 11 10 10 10 9 8 7 6 6 6 6 5 5 5 5 5 4 5 5 5 4 5 5 5 5 5
Wind_Direction
172 166 162 138 55 54 84 93 98 86 71 72 79 84 84 70 96 127 159 138 133 133 132 124 116 111 108 106 104 102 101 99 100 102 104 105 113 117 118 119 120 124 125 124 122 123 124 123 124
166 165 144 61 78 80 74 96 98 102 116 105 86 86 80 73 88 113 131 138 131 132 132 124 119 116 112 110 108 108 106 103 101 102 106 108 111 116 119 119 120 121 123 124 124 125 125 126 127
173 176 93 67 101 131 118 107 108 108 109 102 94 75 76 102 110 126 143 136 126 125 127 128 122 118 114 113 113 113 111 108 105 103 105 107 110 114 116 117 119 120 120 123 125 127 128 129 130
143 66 45 72 113 140 128 123 114 108 90 84 96 80 74 107 120 133 137 134 128 126 126 127 125 121 118 117 115 115 114 112 110 107 107 106 111 116 116 116 119 120 119 121 126 128 130 131 134
99 81 49 65 106 107 111 116 111 107 95 95 96 101 91 90 117 129 136 136 131 129 132 131 126 121 121 122 121 119 117 115 114 111 109 108 112 117 118 117 116 118 119 120 126 130 132 134 134
82 78 86 102 108 106 114 118 107 106 113 110 107 108 103 125 124 135 136 136 137 136 134 132 131 127 126 125 124 126 123 120 118 116 113 111 112 118 120 119 119 120 121 122 124 132 135 137 140
123 113 148 141 116 113 125 121 118 126 129 127 126 107 121 134 135 134 133 131 134 134 134 136 138 137 134 132 130 129 129 128 125 122 120 118 118 119 121 122 123 124 127 128 127 131 133 136 139
155 120 122 130 126 130 137 120 130 131 122 133 129 127 150 156 140 129 127 128 131 136 145 150 141 138 143 141 136 134 134 133 132 129 127 126 125 127 128 129 131 130 133 134 135 137 138 140 140
134 101 150 163 146 147 132 112 112 111 121 132 115 131 147 145 134 124 121 123 135 142 151 151 141 139 142 145 141 142 138 138 137 134 133 132 134 136 137 139 137 137 137 138 140 142 143 145 142
130 143 182 175 157 150 135 130 129 113 113 111 111 121 135 136 134 134 138 140 144 155 160 154 153 155 158 150 139 140 141 144 143 143 143 140 144 148 146 150 146 145 144 143 144 147 146 142 140
142 155 155 146 148 142 134 135 121 123 132 142 142 145 145 139 141 144 147 149 153 158 156 158 160 162 163 150 143 147 150 150 154 152 153 149 145 148 148 152 153 153 152 149 145 149 150 153 172
129 136 136 145 144 136 136 131 123 134 150 148 145 146 145 145 147 152 154 154 148 145 149 150 150 152 155 150 150 162 163 162 162 162 155 149 145 142 146 153 159 163 162 154 154 161 179 196 197
115 116 116 123 125 126 123 129 124 134 139 139 140 143 147 151 154 158 152 146 140 142 148 149 142 140 145 147 161 158 165 166 166 160 155 152 147 146 152 156 164 172 173 168 163 168 172 172 176
157 119 116 127 124 128 124 127 117 145 144 144 147 150 153 154 152 147 142 139 141 145 148 149 146 145 142 144 146 150 163 161 160 159 155 153 153 151 150 150 159 172 182 183 179 171 155 145 129
89 89 72 104 131 135 115 113 144 154 149 151 156 157 155 155 153 154 156 152 151 150 146 147 150 144 142 144 143 143 154 154 156 161 154 151 153 153 149 145 156 173 176 171 167 160 142 139 123
66 80 101 254 141 152 119 161 169 158 154 156 161 160 158 161 162 158 157 153 151 146 145 152 150 142 139 138 135 137 144 145 151 154 153 153 155 154 146 146 160 174 166 159 147 142 128 125 123
60 136 199 243 194 163 133 171 175 167 159 162 166 165 163 164 162 159 159 155 153 150 148 148 144 146 144 140 134 133 140 145 152 154 156 161 160 158 150 149 164 163 143 142 155 140 138 138 135
223 198 204 208 203 150 144 171 169 172 168 169 170 168 166 169 170 165 159 156 153 152 148 145 146 151 144 130 117 113 118 134 148 155 165 166 168 163 155 154 161 148 132 131 134 139 142 147 152
195 189 203 223 173 137 156 164 175 179 174 172 174 172 171 175 171 163 161 158 155 150 145 146 149 155 145 137 137 138 149 159 158 166 165 167 166 162 155 150 149 141 143 153 149 141 137 132 119
173 164 196 352 95 117 154 196 197 182 184 180 178 178 175 170 165 166 164 162 162 160 155 152 157 159 159 159 156 155 154 161 168 171 166 171 166 163 163 156 159 153 148 147 148 143 137 155 142
194 179 181 170 71 26 116 280 222 208 195 184 180 178 176 175 173 173 169 168 165 165 164 164 165 161 162 155 136 123 105 94 111 158 180 185 172 169 166 163 160 159 158 168 173 161 157 174 196
226 196 182 163 130 239 187 209 255 205 209 194 186 181 181 179 174 174 172 172 175 175 170 166 167 166 163 153 147 149 154 167 189 180 183 186 176 174 173 172 166 167 163 168 182 167 163 159 182
220 194 170 157 142 119 312 148 274 214 212 209 193 185 185 182 178 177 177 177 178 175 171 171 169 171 169 162 162 158 161 173 169 160 168 187 190 183 180 176 174 173 169 174 180 170 167 168 178
173 102 64 57 85 136 237 177 246 218 212 206 195 189 186 185 181 178 175 171 172 171 171 171 170 175 172 168 168 167 166 167 160 167 176 189 192 196 190 175 175 176 175 182 185 185 179 186 188
120 104 73 5 8 242 238 186 238 237 218 203 192 189 185 183 180 176 173 173 174 173 177 176 174 178 180 175 176 178 173 171 177 179 182 182 183 194 202 187 177 180 187 189 187 188 194 192 192
200 153 164 184 202 250 290 220 246 246 206 184 176 176 178 179 180 179 179 178 178 179 179 178 178 181 183 182 185 182 178 177 184 184 181 187 192 198 192 185 187 192 194 195 188 195 208 202 204
195 188 171 147 157 158 263 273 315 341 115 136 144 161 171 177 178 178 177 177 177 178 180 179 180 181 185 186 185 186 185 184 187 186 182 190 193 196 187 186 189 193 193 192 186 201 211 203 205
178 165 104 121 153 201 252 235 225 232 202 167 171 176 172 172 175 177 179 178 177 178 179 177 179 185 187 188 192 192 193 193 192 182 185 187 190 187 178 186 189 195 197 195 192 204 213 202 211
210 129 118 131 153 156 201 256 218 202 200 177 182 184 174 169 173 177 180 180 177 174 177 176 180 183 186 188 191 192 196 196 188 189 194 194 194 188 187 191 193 199 207 208 201 211 207 205 217
192 189 153 154 207 161 162 254 241 189 199 176 175 179 171 165 168 170 174 173 174 176 179 181 183 186 191 190 189 191 191 189 190 197 203 197 194 196 195 191 193 202 208 209 207 216 215 209 214
Height
1500 1501 1501 1502 1505 1513 1513 1506 1500 1500 1502 1503 1503 1504 1508 1512 1516 1524 1522 1520 1520 1520 1519 1519 1518 1518 1517 1517 1516 1515 1515 1514 1514 1513 1512 1512 1511 1512 1513 1514 1515 1516 1517 1519 1521 1522 1525 1528 1532
1501 1501 1502 1503 1512 1525 1517 1504 1503 1502 1504 1504 1506 1508 1510 1514 1516 1518 1519 1521 1521 1520 1520 1519 1519 1518 1518 1518 1517 1517 1516 1516 1515 1515 1514 1513 1513 1514 1515 1515 1517 1518 1519 1521 1522 1524 1527 1530 1534
1501 1502 1503 1506 1514 1520 1515 1504 1502 1504 1504 1504 1508 1510 1513 1516 1518 1519 1520 1521 1521 1521 1521 1520 1520 1519 1519 1518 1518 1518 1518 1518 1517 1517 1516 1515 1515 1515 1515 1516 1518 1519 1521 1523 1524 1527 1529 1532 1536
1502 1503 1505 1510 1513 1506 1503 1502 1501 1504 1507 1507 1508 1513 1516 1518 1519 1520 1521 1522 1522 1522 1522 1522 1521 1520 1520 1520 1520 1520 1520 1519 1519 1519 1518 1517 1517 1517 1517 1519 1520 1522 1524 1525 1527 1529 1533 1535 1538
1502 1504 1510 1515 1509 1502 1500 1500 1501 1504 1507 1510 1510 1515 1519 1520 1520 1521 1522 1523 1523 1523 1523 1523 1523 1522 1521 1521 1521 1521 1521 1521 1521 1521 1520 1520 1519 1519 1520 1522 1523 1525 1527 1529 1530 1533 1535 1538 1541
1503 1506 1518 1521 1510 1503 1501 1501 1502 1506 1510 1512 1513 1516 1521 1522 1522 1522 1523 1524 1524 1524 1524 1524 1524 1524 1523 1523 1523 1522 1522 1523 1523 1523 1523 1523 1522 1521 1523 1525 1527 1529 1531 1532 1534 1536 1539 1541 1543
1503 1509 1516 1513 1510 1507 1503 1502 1503 1507 1510 1512 1513 1517 1522 1523 1523 1523 1524 1525 1525 1525 1525 1525 1525 1525 1525 1525 1524 1524 1524 1525 1525 1525 1525 1526 1526 1526 1527 1529 1531 1532 1534 1536 1538 1539 1542 1544 1546
1500 1506 1512 1512 1510 1508 1503 1503 1505 1506 1510 1513 1514 1516 1521 1523 1524 1525 1525 1526 1526 1526 1526 1526 1526 1525 1525 1526 1526 1526 1526 1527 1527 1527 1528 1528 1529 1530 1531 1533 1534 1536 1538 1539 1541 1543 1545 1547 1548
1498 1508 1515 1510 1508 1506 1502 1504 1507 1508 1510 1513 1514 1515 1519 1522 1524 1525 1526 1527 1527 1527 1527 1527 1526 1526 1526 1527 1527 1527 1528 1529 1529 1529 1530 1530 1532 1533 1534 1536 1537 1539 1540 1542 1544 1546 1547 1549 1550
1495 1508 1505 1498 1498 1500 1501 1503 1506 1510 1512 1514 1516 1519 1521 1523 1524 1525 1526 1526 1526 1527 1527 1527 1527 1527 1527 1527 1528 1529 1530 1530 1531 1531 1532 1533 1534 1535 1537 1538 1540 1541 1543 1544 1546 1548 1549 1551 1552
1492 1497 1494 1494 1495 1497 1500 1503 1505 1509 1513 1514 1515 1519 1521 1523 1524 1525 1526 1526 1526 1527 1527 1527 1527 1527 1528 1529 1530 1530 1531 1532 1533 1533 1534 1535 1536 1538 1539 1540 1542 1543 1545 1546 1548 1549 1551 1552 1554
1490 1491 1492 1494 1495 1497 1499 1502 1506 1508 1512 1513 1515 1518 1521 1523 1524 1525 1525 1526 1527 1527 1527 1527 1528 1528 1529 1530 1531 1532 1533 1534 1534 1535 1536 1537 1538 1539 1541 1543 1544 1545 1546 1548 1549 1551 1552 1553 1555
1490 1492 1492 1494 1495 1497 1499 1502 1505 1509 1512 1515 1517 1519 1521 1523 1524 1525 1526 1526 1527 1527 1527 1528 1528 1529 1529 1530 1531 1532 1534 1535 1536 1537 1538 1539 1540 1541 1543 1544 1545 1547 1548 1549 1551 1552 1553 1554 1556
1489 1490 1492 1494 1496 1498 1501 1504 1506 1511 1513 1515 1517 1519 1521 1522 1524 1525 1526 1526 1527 1527 1527 1528 1529 1529 1530 1531 1532 1534 1535 1536 1537 1538 1539 1540 1541 1542 1544 1545 1547 1548 1550 1551 1552 1553 1554 1555 1556
1489 1494 1497 1497 1498 1501 1503 1509 1508 1510 1512 1515 1517 1519 1521 1522 1524 1524 1525 1526 1526 1526 1527 1528 1529 1530 1531 1532 1533 1535 1536 1537 1538 1540 1541 1542 1543 1544 1545 1546 1548 1549 1551 1552 1553 1554 1555 1556 1557
1493 1501 1509 1501 1499 1502 1508 1518 1509 1510 1512 1514 1517 1519 1520 1522 1523 1524 1525 1525 1526 1526 1527 1528 1529 1530 1531 1533 1534 1535 1537 1538 1539 1540 1541 1543 1544 1545 1546 1547 1549 1550 1551 1553 1554 1555 1556 1557 1558
1505 1513 1512 1505 1498 1501 1506 1514 1509 1510 1511 1514 1516 1518 1520 1521 1523 1524 1524 1525 1525 1526 1527 1528 1529 1530 1532 1533 1535 1536 1537 1538 1540 1541 1542 1543 1544 1545 1547 1548 1549 1550 1552 1553 1554 1555 1556 1557 1558
1513 1511 1509 1507 1499 1500 1507 1510 1507 1509 1510 1512 1514 1516 1518 1520 1521 1523 1524 1525 1525 1526 1527 1528 1529 1531 1532 1533 1535 1536 1538 1539 1540 1541 1542 1543 1544 1546 1547 1548 1549 1551 1552 1553 1554 1555 1556 1557 1558
1497 1503 1507 1501 1495 1501 1507 1509 1507 1507 1509 1511 1513 1515 1516 1518 1521 1522 1524 1525 1526 1526 1527 1528 1529 1530 1532 1533 1534 1536 1537 1539 1540 1541 1542 1543 1544 1545 1547 1548 1549 1551 1552 1553 1554 1554 1555 1556 1557
1494 1503 1504 1499 1496 1502 1509 1509 1505 1506 1506 1506 1509 1511 1514 1517 1520 1522 1523 1524 1525 1526 1527 1528 1529 1530 1531 1533 1534 1536 1537 1539 1540 1541 1542 1543 1544 1545 1547 1548 1549 1550 1551 1552 1553 1554 1554 1555 1556
1495 1500 1501 1502 1500 1501 1509 1514 1509 1505 1505 1506 1507 1509 1512 1514 1516 1519 1521 1523 1524 1525 1526 1527 1528 1529 1531 1533 1534 1536 1537 1538 1540 1540 1541 1543 1544 1545 1546 1548 1549 1550 1551 1551 1552 1553 1554 1554 1555
1497 1487 1489 1496 1509 1520 1515 1532 1514 1506 1505 1505 1506 1507 1510 1512 1514 1517 1519 1521 1522 1524 1526 1527 1528 1529 1531 1532 1534 1535 1536 1537 1538 1540 1541 1542 1543 1545 1546 1547 1548 1549 1550 1550 1551 1552 1553 1553 1554
1487 1481 1486 1493 1506 1519 1518 1528 1520 1508 1508 1503 1502 1503 1506 1509 1511 1514 1516 1518 1521 1523 1525 1527 1528 1529 1530 1532 1533 1534 1536 1537 1538 1540 1541 1542 1543 1544 1545 1546 1547 1548 1548 1549 1550 1550 1551 1552 1552
1478 1486 1494 1503 1514 1531 1520 1526 1524 1509 1501 1498 1498 1500 1503 1506 1508 1511 1515 1517 1520 1522 1524 1526 1527 1528 1529 1531 1532 1533 1535 1536 1537 1539 1540 1541 1542 1543 1544 1545 1545 1546 1547 1547 1548 1549 1549 1550 1550
1479 1502 1524 1530 1538 1533 1515 1519 1516 1495 1490 1491 1493 1496 1499 1502 1506 1509 1512 1515 1517 1520 1522 1524 1526 1527 1528 1529 1531 1532 1534 1535 1536 1537 1539 1540 1541 1542 1543 1543 1544 1545 1545 1546 1546 1547 1547 1548 1548
1482 1495 1521 1535 1539 1531 1517 1519 1503 1486 1484 1486 1489 1493 1496 1499 1503 1506 1509 1511 1514 1517 1520 1522 1524 1525 1527 1528 1530 1531 1533 1534 1535 1536 1537 1538 1539 1541 1542 1542 1543 1543 1544 1544 1544 1545 1545 1546 1546
1479 1489 1490 1511 1522 1531 1525 1511 1497 1485 1484 1485 1488 1491 1494 1496 1500 1503 1506 1509 1512 1514 1517 1519 1521 1523 1525 1527 1528 1530 1531 1532 1534 1535 1536 1537 1538 1539 1540 1541 1541 1542 1542 1542 1542 1542 1543 1543 1544
1468 1476 1495 1511 1528 1536 1526 1517 1511 1496 1490 1486 1486 1489 1490 1493 1497 1500 1504 1506 1509 1512 1515 1517 1519 1521 1523 1525 1527 1528 1530 1531 1532 1534 1535 1535 1536 1537 1538 1539 1539 1540 1540 1540 1540 1540 1541 1541 1542
1472 1479 1490 1504 1510 1528 1534 1521 1489 1489 1486 1484 1484 1485 1486 1489 1493 1496 1500 1504 1507 1510 1513 1515 1518 1519 1521 1523 1525 1526 1528 1529 1531 1532 1533 1534 1534 1535 1536 1536 1537 1537 1538 1538 1538 1538 1539 1539 1539
1464 1472 1485 1504 1510 1514 1521 1515 1479 1480 1480 1481 1483 1484 1485 1487 1490 1494 1498 1502 1505 1508 1511 1513 1515 1517 1519 1521 1523 1525 1526 1527 1528 1529 1530 1531 1532 1532 1533 1534 1534 1534 1535 1535 1536 1536 1536 1536 1536